N2744X KAPF-KORL

Flight info

Callsign N2744X
Flight time 0h 57m
Altitude 17000
Route CSHEL8 PULEC JOKRS4
Aircraft C414/L-SBDFGRY/S

Departure

Time 2026-04-20 12:11
Airport Naples Municipal Airport (KAPF)

Arrival

Time 2026-04-20 13:09
Airport Orlando Executive Airport (KORL)
Time Latitude Longitude Altitude Speed Heading
2026-04-20 11:55 26.14907 -81.77599 9 ft 0 kts 163°
2026-04-20 12:06 26.14907 -81.77580 9 ft 8 kts 42°
2026-04-20 12:07 26.14969 -81.77615 9 ft 15 kts 295°
2026-04-20 12:07 26.14984 -81.77686 9 ft 17 kts 215°
2026-04-20 12:07 26.14899 -81.77781 9 ft 17 kts 226°
2026-04-20 12:07 26.14884 -81.77798 9 ft 0 kts 221°
2026-04-20 12:08 26.14840 -81.77841 9 ft 14 kts 227°
2026-04-20 12:09 26.14787 -81.77901 10 ft 18 kts 224°
2026-04-20 12:09 26.14692 -81.78003 10 ft 21 kts 224°
2026-04-20 12:09 26.14601 -81.78129 9 ft 21 kts 269°
2026-04-20 12:09 26.14612 -81.78232 11 ft 13 kts 326°
2026-04-20 12:10 26.14650 -81.78214 11 ft 0 kts 43°
2026-04-20 12:10 26.14652 -81.78212 11 ft 4 kts 42°
2026-04-20 12:10 26.14812 -81.78042 12 ft 61 kts 44°
2026-04-20 12:11 26.15225 -81.77599 128 ft 93 kts 43°
2026-04-20 12:11 26.15747 -81.77087 418 ft 107 kts 39°
2026-04-20 12:11 26.16335 -81.76532 706 ft 113 kts 39°
2026-04-20 12:11 26.16949 -81.75971 988 ft 117 kts 38°
2026-04-20 12:12 26.17588 -81.75389 1247 ft 120 kts 38°
2026-04-20 12:12 26.18240 -81.74801 1514 ft 124 kts 38°
2026-04-20 12:12 26.18926 -81.74186 1777 ft 130 kts 39°
2026-04-20 12:12 26.19645 -81.73548 2035 ft 135 kts 39°
2026-04-20 12:13 26.20388 -81.72890 2299 ft 139 kts 39°
2026-04-20 12:13 26.21154 -81.72216 2539 ft 142 kts 39°
2026-04-20 12:13 26.21945 -81.71531 2786 ft 145 kts 38°
2026-04-20 12:13 26.22751 -81.70839 3033 ft 147 kts 38°
2026-04-20 12:14 26.23564 -81.70146 3282 ft 148 kts 38°
2026-04-20 12:14 26.24387 -81.69449 3525 ft 149 kts 37°
2026-04-20 12:14 26.25207 -81.68758 3767 ft 151 kts 37°
2026-04-20 12:14 26.26091 -81.68141 4003 ft 151 kts 14°
2026-04-20 12:15 26.27080 -81.68366 4248 ft 150 kts 319°
2026-04-20 12:15 26.27495 -81.69375 4500 ft 147 kts 266°
2026-04-20 12:15 26.27014 -81.70334 4758 ft 147 kts 215°
2026-04-20 12:15 26.26106 -81.70869 5019 ft 148 kts 208°
2026-04-20 12:16 26.25152 -81.71292 5261 ft 150 kts 186°
2026-04-20 12:16 26.24197 -81.70868 5504 ft 156 kts 134°
2026-04-20 12:16 26.23888 -81.69753 5749 ft 158 kts 82°
2026-04-20 12:16 26.24462 -81.68759 5998 ft 156 kts 29°
2026-04-20 12:17 26.25494 -81.68530 6259 ft 152 kts 357°
2026-04-20 12:17 26.26558 -81.68536 6518 ft 153 kts 357°
2026-04-20 12:17 26.27629 -81.68544 6756 ft 155 kts 356°
2026-04-20 12:17 26.28709 -81.68562 6994 ft 156 kts 355°
2026-04-20 12:18 26.29797 -81.68595 7235 ft 157 kts 355°
2026-04-20 12:18 26.30893 -81.68631 7477 ft 158 kts 355°
2026-04-20 12:18 26.31993 -81.68668 7718 ft 158 kts 355°
2026-04-20 12:18 26.33077 -81.68704 7958 ft 158 kts 355°
2026-04-20 12:19 26.34180 -81.68738 8207 ft 158 kts 355°
2026-04-20 12:19 26.35280 -81.68772 8449 ft 158 kts 355°
2026-04-20 12:19 26.36379 -81.68804 8699 ft 158 kts 355°
2026-04-20 12:19 26.37477 -81.68836 8952 ft 158 kts 355°
2026-04-20 12:20 26.38575 -81.68866 9199 ft 158 kts 355°
2026-04-20 12:20 26.39673 -81.68893 9455 ft 158 kts 355°
2026-04-20 12:20 26.40771 -81.68921 9709 ft 158 kts 355°
2026-04-20 12:20 26.41862 -81.68948 9965 ft 159 kts 355°
2026-04-20 12:21 26.42971 -81.68975 10201 ft 160 kts 355°
2026-04-20 12:21 26.44085 -81.68999 10432 ft 160 kts 355°
2026-04-20 12:21 26.45195 -81.69017 10666 ft 160 kts 355°
2026-04-20 12:21 26.46307 -81.69027 10899 ft 160 kts 355°
2026-04-20 12:22 26.47416 -81.69030 11125 ft 159 kts 355°
2026-04-20 12:22 26.48526 -81.69027 11373 ft 160 kts 355°
2026-04-20 12:22 26.49639 -81.69014 11613 ft 160 kts 355°
2026-04-20 12:22 26.50755 -81.68994 11853 ft 160 kts 355°
2026-04-20 12:23 26.51854 -81.68969 12093 ft 160 kts 355°
2026-04-20 12:23 26.52969 -81.68938 12338 ft 160 kts 355°
2026-04-20 12:23 26.54084 -81.68898 12584 ft 160 kts 355°
2026-04-20 12:23 26.55198 -81.68851 12832 ft 160 kts 355°
2026-04-20 12:24 26.56312 -81.68809 13084 ft 160 kts 353°
2026-04-20 12:24 26.57423 -81.68790 13336 ft 160 kts 353°
2026-04-20 12:24 26.58537 -81.68763 13591 ft 160 kts 353°
2026-04-20 12:24 26.59650 -81.68731 13847 ft 160 kts 353°
2026-04-20 12:25 26.60765 -81.68692 14082 ft 160 kts 353°
2026-04-20 12:25 26.61882 -81.68648 14308 ft 160 kts 353°
2026-04-20 12:25 26.62983 -81.68602 14535 ft 161 kts 353°
2026-04-20 12:25 26.64102 -81.68553 14762 ft 161 kts 353°
2026-04-20 12:26 26.65220 -81.68499 14997 ft 161 kts 353°
2026-04-20 12:26 26.66337 -81.68445 15231 ft 161 kts 353°
2026-04-20 12:26 26.67454 -81.68387 15468 ft 161 kts 353°
2026-04-20 12:26 26.68570 -81.68328 15704 ft 161 kts 353°
2026-04-20 12:27 26.69687 -81.68265 15945 ft 161 kts 353°
2026-04-20 12:27 26.70805 -81.68201 16186 ft 161 kts 353°
2026-04-20 12:27 26.71907 -81.68134 16425 ft 161 kts 353°
2026-04-20 12:27 26.73025 -81.68061 16671 ft 161 kts 353°
2026-04-20 12:28 26.74143 -81.67988 16918 ft 161 kts 353°
2026-04-20 12:28 26.75289 -81.67914 17005 ft 172 kts 353°
2026-04-20 12:28 26.76525 -81.67850 17012 ft 184 kts 353°
2026-04-20 12:28 26.77835 -81.67793 17009 ft 193 kts 353°
2026-04-20 12:29 26.79202 -81.67745 17007 ft 200 kts 353°
2026-04-20 12:29 26.80603 -81.67702 17004 ft 203 kts 353°
2026-04-20 12:29 26.82006 -81.67660 17006 ft 206 kts 353°
2026-04-20 12:29 26.83442 -81.67619 17006 ft 207 kts 353°
2026-04-20 12:30 26.84888 -81.67579 17010 ft 208 kts 353°
2026-04-20 12:30 26.86341 -81.67540 17007 ft 209 kts 353°
2026-04-20 12:30 26.87799 -81.67501 17015 ft 210 kts 353°
2026-04-20 12:30 26.89257 -81.67460 17012 ft 210 kts 353°
2026-04-20 12:31 26.90722 -81.67419 17012 ft 211 kts 353°
2026-04-20 12:31 26.92187 -81.67377 17015 ft 211 kts 353°
2026-04-20 12:31 26.93652 -81.67334 17016 ft 211 kts 353°
2026-04-20 12:31 26.95120 -81.67291 17016 ft 211 kts 353°
2026-04-20 12:32 26.96567 -81.67247 17012 ft 211 kts 353°
2026-04-20 12:32 26.98034 -81.67204 17014 ft 211 kts 353°
2026-04-20 12:32 26.99502 -81.67160 17015 ft 211 kts 353°
2026-04-20 12:32 27.00971 -81.67114 17015 ft 211 kts 353°
2026-04-20 12:33 27.02440 -81.67068 17016 ft 211 kts 353°
2026-04-20 12:33 27.03909 -81.67021 17015 ft 211 kts 353°
2026-04-20 12:33 27.05378 -81.66972 17015 ft 211 kts 353°
2026-04-20 12:33 27.06850 -81.66924 17013 ft 212 kts 353°
2026-04-20 12:34 27.08321 -81.66874 17015 ft 212 kts 353°
2026-04-20 12:34 27.09795 -81.66825 17010 ft 212 kts 353°
2026-04-20 12:34 27.11249 -81.66777 17015 ft 212 kts 353°
2026-04-20 12:34 27.12723 -81.66726 17012 ft 212 kts 353°
2026-04-20 12:35 27.14193 -81.66674 17010 ft 212 kts 353°
2026-04-20 12:35 27.15665 -81.66622 17010 ft 212 kts 353°
2026-04-20 12:35 27.17137 -81.66569 17014 ft 212 kts 353°
2026-04-20 12:35 27.18608 -81.66519 17016 ft 210 kts 351°
2026-04-20 12:36 27.19966 -81.66889 17007 ft 197 kts 329°
2026-04-20 12:36 27.21208 -81.67539 17010 ft 197 kts 327°
2026-04-20 12:36 27.22409 -81.68220 17017 ft 196 kts 324°
2026-04-20 12:36 27.23576 -81.68993 17016 ft 194 kts 319°
2026-04-20 12:37 27.24690 -81.69841 17016 ft 193 kts 319°
2026-04-20 12:37 27.25797 -81.70697 17016 ft 193 kts 318°
2026-04-20 12:37 27.26905 -81.71556 17017 ft 193 kts 319°
2026-04-20 12:37 27.28038 -81.72378 17016 ft 195 kts 322°
2026-04-20 12:38 27.29167 -81.73206 17015 ft 194 kts 320°
2026-04-20 12:38 27.30378 -81.73903 17019 ft 199 kts 331°
2026-04-20 12:38 27.31691 -81.74375 17017 ft 202 kts 336°
2026-04-20 12:38 27.33044 -81.74802 17016 ft 202 kts 336°
2026-04-20 12:39 27.35736 -81.75697 17017 ft 202 kts 335°
2026-04-20 12:39 27.37084 -81.76151 17019 ft 202 kts 335°
2026-04-20 12:39 27.38431 -81.76604 17023 ft 202 kts 335°
2026-04-20 12:40 27.39780 -81.77057 17018 ft 202 kts 335°
2026-04-20 12:40 27.41128 -81.77510 17018 ft 202 kts 335°
2026-04-20 12:40 27.42476 -81.77962 17022 ft 202 kts 335°
2026-04-20 12:40 27.43808 -81.78411 17020 ft 203 kts 335°
2026-04-20 12:41 27.45158 -81.78864 17023 ft 202 kts 335°
2026-04-20 12:41 27.46508 -81.79318 17023 ft 202 kts 335°
2026-04-20 12:41 27.47855 -81.79772 17022 ft 202 kts 335°
2026-04-20 12:41 27.49206 -81.80226 17024 ft 202 kts 335°
2026-04-20 12:42 27.50555 -81.80681 17021 ft 203 kts 335°
2026-04-20 12:42 27.51907 -81.81135 17028 ft 203 kts 335°
2026-04-20 12:42 27.53257 -81.81591 17029 ft 203 kts 335°
2026-04-20 12:42 27.54607 -81.82045 17026 ft 203 kts 335°
2026-04-20 12:43 27.55960 -81.82501 17026 ft 203 kts 335°
2026-04-20 12:43 27.57310 -81.82956 17023 ft 202 kts 335°
2026-04-20 12:43 27.58642 -81.83405 17025 ft 203 kts 335°
2026-04-20 12:43 27.59991 -81.83860 17030 ft 202 kts 335°
2026-04-20 12:44 27.61341 -81.84316 17037 ft 202 kts 335°
2026-04-20 12:44 27.62691 -81.84771 17037 ft 202 kts 335°
2026-04-20 12:44 27.64040 -81.85227 17038 ft 203 kts 335°
2026-04-20 12:44 27.65438 -81.85520 17041 ft 211 kts 353°
2026-04-20 12:45 27.66906 -81.85176 17043 ft 221 kts 12°
2026-04-20 12:45 27.68346 -81.84560 17048 ft 221 kts 13°
2026-04-20 12:45 27.69769 -81.83958 17051 ft 221 kts 13°
2026-04-20 12:45 27.71211 -81.83353 17052 ft 221 kts 13°
2026-04-20 12:46 27.72657 -81.82745 17056 ft 222 kts 13°
2026-04-20 12:46 27.74100 -81.82139 17057 ft 221 kts 13°
2026-04-20 12:46 27.75543 -81.81533 17061 ft 221 kts 13°
2026-04-20 12:46 27.76986 -81.80925 17063 ft 221 kts 13°
2026-04-20 12:47 27.78431 -81.80317 17066 ft 221 kts 13°
2026-04-20 12:47 27.79872 -81.79711 17069 ft 221 kts 13°
2026-04-20 12:47 27.81293 -81.79113 17068 ft 221 kts 13°
2026-04-20 12:47 27.82733 -81.78506 17070 ft 221 kts 13°
2026-04-20 12:48 27.84172 -81.77900 17071 ft 220 kts 13°
2026-04-20 12:48 27.85610 -81.77295 17075 ft 220 kts 13°
2026-04-20 12:48 27.87045 -81.76691 17072 ft 220 kts 13°
2026-04-20 12:48 27.88482 -81.76085 17072 ft 220 kts 13°
2026-04-20 12:49 27.89919 -81.75479 17074 ft 221 kts 13°
2026-04-20 12:49 27.91359 -81.74884 17072 ft 219 kts
2026-04-20 12:49 27.92827 -81.74552 17071 ft 214 kts
2026-04-20 12:49 27.94297 -81.74253 17074 ft 215 kts
2026-04-20 12:50 27.95748 -81.73946 17074 ft 215 kts
2026-04-20 12:50 27.97217 -81.73636 17073 ft 215 kts
2026-04-20 12:50 27.98687 -81.73328 17076 ft 215 kts
2026-04-20 12:50 28.00162 -81.73018 17084 ft 215 kts
2026-04-20 12:51 28.01631 -81.72710 17082 ft 215 kts
2026-04-20 12:51 28.03097 -81.72351 17082 ft 219 kts 12°
2026-04-20 12:51 28.04437 -81.71472 17083 ft 227 kts 31°
2026-04-20 12:51 28.05696 -81.70393 17083 ft 227 kts 31°
2026-04-20 12:52 28.06944 -81.69337 17083 ft 227 kts 30°
2026-04-20 12:52 28.08210 -81.68266 17082 ft 227 kts 31°
2026-04-20 12:52 28.09475 -81.67195 17082 ft 227 kts 31°
2026-04-20 12:52 28.10742 -81.66120 17084 ft 227 kts 31°
2026-04-20 12:53 28.12009 -81.65048 17051 ft 229 kts 31°
2026-04-20 12:53 28.13319 -81.63941 16754 ft 240 kts 31°
2026-04-20 12:53 28.14678 -81.62790 16468 ft 247 kts 31°
2026-04-20 12:53 28.16072 -81.61627 16182 ft 250 kts 31°
2026-04-20 12:54 28.17479 -81.60455 15899 ft 251 kts 31°
2026-04-20 12:54 28.18861 -81.59299 15593 ft 250 kts 32°
2026-04-20 12:54 28.20257 -81.58131 15242 ft 249 kts 32°
2026-04-20 12:54 28.21202 -81.57342 15004 ft 249 kts 32°
2026-04-20 12:55 28.21913 -81.56747 14827 ft 249 kts 32°
2026-04-20 12:55 28.23303 -81.55585 14480 ft 247 kts 32°
2026-04-20 12:55 28.24682 -81.54430 14134 ft 245 kts 32°
2026-04-20 12:55 28.26085 -81.53370 13760 ft 239 kts 19°
2026-04-20 12:56 28.27667 -81.53110 13288 ft 226 kts 349°
2026-04-20 12:56 28.29182 -81.53509 12784 ft 222 kts 343°
2026-04-20 12:56 28.30699 -81.53799 12291 ft 220 kts 351°
2026-04-20 12:56 28.32196 -81.53892 11803 ft 217 kts 355°
2026-04-20 12:57 28.33693 -81.53957 11317 ft 214 kts 354°
2026-04-20 12:57 28.35170 -81.54047 10837 ft 212 kts 354°
2026-04-20 12:57 28.36640 -81.54146 10370 ft 211 kts 354°
2026-04-20 12:57 28.38100 -81.54240 9887 ft 210 kts 355°
2026-04-20 12:58 28.39549 -81.54333 9374 ft 208 kts 355°
2026-04-20 12:58 28.40990 -81.54425 8875 ft 206 kts 355°
2026-04-20 12:58 28.42414 -81.54516 8348 ft 203 kts 355°
2026-04-20 12:58 28.43819 -81.54603 7632 ft 207 kts 357°
2026-04-20 12:59 28.45233 -81.54335 6926 ft 208 kts 19°
2026-04-20 12:59 28.46468 -81.53477 6204 ft 211 kts 39°
2026-04-20 12:59 28.47347 -81.52144 5474 ft 213 kts 62°
2026-04-20 12:59 28.47932 -81.50600 4749 ft 211 kts 67°
2026-04-20 13:00 28.48120 -81.48986 3999 ft 207 kts 97°
2026-04-20 13:00 28.47456 -81.47570 3296 ft 207 kts 131°
2026-04-20 13:00 28.46164 -81.46849 2557 ft 214 kts 165°
2026-04-20 13:00 28.44695 -81.47116 2026 ft 216 kts 205°
2026-04-20 13:01 28.43764 -81.48253 2008 ft 189 kts 250°
2026-04-20 13:01 28.43605 -81.49648 2004 ft 173 kts 281°
2026-04-20 13:01 28.43957 -81.50881 2006 ft 160 kts 308°
2026-04-20 13:01 28.44455 -81.52011 2003 ft 159 kts 305°
2026-04-20 13:02 28.44975 -81.53099 2006 ft 154 kts 314°
2026-04-20 13:02 28.45678 -81.53944 2003 ft 140 kts 342°
2026-04-20 13:02 28.46525 -81.53981 2007 ft 118 kts 36°
2026-04-20 13:02 28.46947 -81.53234 2015 ft 117 kts 65°
2026-04-20 13:03 28.47280 -81.52400 2015 ft 115 kts 63°
2026-04-20 13:03 28.47604 -81.51548 1904 ft 121 kts 63°
2026-04-20 13:03 28.47935 -81.50663 1780 ft 121 kts 65°
2026-04-20 13:03 28.48266 -81.49790 1693 ft 120 kts 63°
2026-04-20 13:04 28.48603 -81.48903 1591 ft 124 kts 64°
2026-04-20 13:04 28.48948 -81.47995 1489 ft 126 kts 64°
2026-04-20 13:04 28.49295 -81.47077 1388 ft 127 kts 63°
2026-04-20 13:04 28.49643 -81.46160 1289 ft 126 kts 64°
2026-04-20 13:05 28.49986 -81.45256 1200 ft 127 kts 63°
2026-04-20 13:05 28.50341 -81.44319 1099 ft 130 kts 63°
2026-04-20 13:05 28.50702 -81.43371 1015 ft 130 kts 64°
2026-04-20 13:05 28.51049 -81.42451 1006 ft 124 kts 63°
2026-04-20 13:06 28.51386 -81.41563 1004 ft 121 kts 64°
2026-04-20 13:06 28.51718 -81.40691 997 ft 119 kts 63°
2026-04-20 13:06 28.52044 -81.39837 984 ft 116 kts 62°
2026-04-20 13:06 28.52346 -81.39032 989 ft 107 kts 63°
2026-04-20 13:07 28.52634 -81.38266 958 ft 107 kts 62°
2026-04-20 13:07 28.52901 -81.37561 833 ft 86 kts 63°
2026-04-20 13:07 28.53127 -81.36969 714 ft 78 kts 60°
2026-04-20 13:07 28.53296 -81.36396 544 ft 80 kts 66°
2026-04-20 13:08 28.53481 -81.35827 497 ft 76 kts 58°
2026-04-20 13:08 28.53745 -81.35276 438 ft 81 kts 56°
2026-04-20 13:08 28.53971 -81.34680 357 ft 83 kts 59°
2026-04-20 13:08 28.54221 -81.34066 191 ft 88 kts 60°
2026-04-20 13:09 28.54444 -81.33478 113 ft 71 kts 61°
2026-04-20 13:09 28.54613 -81.33059 112 ft 49 kts 62°
2026-04-20 13:09 28.54745 -81.32794 112 ft 28 kts 34°
2026-04-20 13:09 28.54884 -81.32743 111 ft 21 kts 266°
2026-04-20 13:10 28.54831 -81.32880 112 ft 18 kts 249°
2026-04-20 13:10 28.54788 -81.33022 112 ft 19 kts 243°
2026-04-20 13:10 28.54727 -81.33160 113 ft 21 kts 246°
2026-04-20 13:10 28.54665 -81.33323 111 ft 25 kts 245°
2026-04-20 13:11 28.54593 -81.33513 110 ft 28 kts 247°
2026-04-20 13:11 28.54510 -81.33730 107 ft 32 kts 245°
2026-04-20 13:11 28.54427 -81.33895 107 ft 19 kts 276°
2026-04-20 13:11 28.54439 -81.34046 107 ft 20 kts 283°
2026-04-20 13:12 28.54448 -81.34195 110 ft 18 kts 298°
2026-04-20 13:12 28.54556 -81.34202 110 ft 17 kts
2026-04-20 13:12 28.54674 -81.34209 110 ft 17 kts 354°
2026-04-20 13:12 28.54789 -81.34211 109 ft 16 kts
2026-04-20 13:13 28.54858 -81.34142 108 ft 14 kts 35°
2026-04-20 13:13 28.54928 -81.34070 110 ft 13 kts 52°
2026-04-20 13:13 28.54882 -81.33982 112 ft 15 kts 129°
2026-04-20 13:13 28.54812 -81.33884 112 ft 17 kts 122°
2026-04-20 13:14 28.54812 -81.33757 111 ft 17 kts 54°
2026-04-20 13:14 28.54834 -81.33712 112 ft 0 kts 138°